TimeCST,TemperatureF,Dew PointF,Humidity,Sea Level PressureIn,VisibilityMPH,Wind Direction,Wind SpeedMPH,Gust SpeedMPH,PrecipitationIn,Events,Conditions,WindDirDegrees,DateUTC
12:56 AM,31.1,19.0,61,30.13,10.0,WNW,29.9,36.8,N/A,,Clear,300,2013-01-20 06:56:00
1:56 AM,26.1,9.1,49,30.17,10.0,NW,18.4,32.2,N/A,,Clear,320,2013-01-20 07:56:00
2:56 AM,24.1,10.0,55,30.19,10.0,WNW,24.2,28.8,N/A,,Clear,300,2013-01-20 08:56:00
3:56 AM,22.1,11.1,63,30.22,10.0,WNW,17.3,-,N/A,,Clear,300,2013-01-20 09:56:00
4:56 AM,19.0,7.2,60,30.28,10.0,NW,20.7,25.3,N/A,,Clear,310,2013-01-20 10:56:00
5:56 AM,18.1,8.1,65,30.30,10.0,NNW,12.7,-,N/A,,Clear,330,2013-01-20 11:56:00
6:56 AM,17.1,10.0,74,30.32,10.0,NW,13.8,-,N/A,,Clear,310,2013-01-20 12:56:00
7:56 AM,17.1,9.1,71,30.34,10.0,NW,12.7,-,N/A,,Clear,310,2013-01-20 13:56:00
8:56 AM,18.1,9.1,68,30.34,10.0,NW,12.7,-,N/A,,Scattered Clouds,320,2013-01-20 14:56:00
9:56 AM,19.0,7.2,60,30.37,10.0,NNW,10.4,-,N/A,,Partly Cloudy,330,2013-01-20 15:56:00
10:56 AM,21.0,8.1,57,30.37,10.0,NNW,3.5,-,N/A,,Mostly Cloudy,330,2013-01-20 16:56:00
11:56 AM,23.0,9.1,55,30.34,10.0,NW,10.4,-,N/A,,Partly Cloudy,320,2013-01-20 17:56:00
12:56 PM,22.1,9.1,58,30.34,10.0,WNW,10.4,-,N/A,,Scattered Clouds,300,2013-01-20 18:56:00
1:56 PM,22.1,8.1,55,30.35,10.0,WNW,11.5,-,N/A,,Overcast,300,2013-01-20 19:56:00
2:56 PM,22.1,9.1,58,30.35,10.0,WNW,10.4,-,N/A,,Overcast,290,2013-01-20 20:56:00
3:56 PM,22.1,9.1,58,30.35,10.0,NW,12.7,-,N/A,,Overcast,310,2013-01-20 21:56:00
4:56 PM,21.0,9.1,60,30.35,10.0,NW,9.2,-,N/A,,Overcast,310,2013-01-20 22:56:00
5:56 PM,21.0,9.1,60,30.35,10.0,NW,12.7,-,N/A,,Overcast,310,2013-01-20 23:56:00
6:56 PM,20.1,9.1,62,30.36,10.0,NNW,10.4,-,0.00,Snow,Light Snow,330,2013-01-21 00:56:00
7:56 PM,19.0,12.0,74,30.36,4.0,NW,9.2,-,0.00,Snow,Light Snow,310,2013-01-21 01:56:00
8:56 PM,18.1,12.0,77,30.35,10.0,NW,10.4,-,0.00,Snow,Light Snow,310,2013-01-21 02:56:00
9:25 PM,17.6,12.2,79,30.26,10.0,WNW,10.4,-,0.00,,Overcast,290,2013-01-21 03:25:00
9:56 PM,19.0,13.1,78,30.33,10.0,WNW,10.4,-,0.00,Snow,Light Snow,300,2013-01-21 03:56:00
10:56 PM,18.1,12.0,77,30.32,10.0,WNW,10.4,-,0.00,Snow,Light Snow,300,2013-01-21 04:56:00
11:56 PM,18.1,11.1,74,30.30,10.0,WNW,13.8,-,0.00,Snow,Light Snow,290,2013-01-21 05:56:00